Powrót do katalogu

ATS 5

AktywnyŁącznośćGEO
NORAD 4068·PAYLOAD·🇺🇸 United States

Wystrzelony Aug 12, 1969 z Cape Canaveral Space Force Station

Loading…

TLE

ŚwieżeSource: Space-Track

Epoka: Sep 14, 2026, 13:17 UTC

1 04068U 69069A   26257.55347747  .00000028  00000-0  00000-0 0  9992
2 04068   0.4054 119.9548 0005824 152.0529 171.3801  0.99488126 47215

Śledź ATS 5 w czasie rzeczywistym z AllMySat

Download on the App Store